Burlington, NC

9:07 AM EDT on July 25, 2017 (GMT -0400)
Burlington-Alamance Regional

Weather History for KBUY - July, 2013

Change the Weather History Date:

Saturday, July 13, 2013

  Actual Average Record
Temperature  
Mean Temperature 72 °F -  
Max Temperature 78 °F 89 °F 100 °F (1993)
Min Temperature 68 °F 68 °F 55 °F (1953)
Cooling Degree Days 8    
Growing Degree Days 22 (Base 50)    
Moisture  
Dew Point 70 °F    
Average Humidity 92    
Maximum Humidity 100    
Minimum Humidity 87    
Precipitation  
Precipitation 0.09 in - - ()
Sea Level Pressure  
Sea Level Pressure 30.11 in    
Wind  
Wind Speed 5 mph (NE)    
Max Wind Speed 9 mph    
Max Gust Speed -    
Visibility 7 miles    
Events Rain    
Averages and records for this station are not official NWS values.
T = Trace of Precipitation, MM = Missing Value Source: NWS Daily Summary

Daily Weather History Graph

Daily Weather History Graph

Search for Another Location

Airport or City:

Trip Planner

Search our weather history database for the weather conditions in past years. The results will help you decide how hot, cold, wet, or windy it might be!

Date:

Astronomy

Jul. 13, 2013 Rise Set
Actual Time 6:11 AM EDT 8:35 PM EDT
Civil Twilight 5:41 AM EDT 9:05 PM EDT
Nautical Twilight 5:05 AM EDT 9:41 PM EDT
Astronomical Twilight 4:25 AM EDT 10:21 PM EDT
Moon 11:14 AM EDT (7/13) 11:27 PM EDT (7/13)
Length of Visible Light 15h 23m
Length of Day
14h 24m
Waxing Crescent, 25% of the Moon is Illuminated
Jul 13
Waxing Crescent
Jul 15
First Quarter
Jul 22
Full
Jul 29
Last Quarter
Aug 6
New

Hourly Weather History & Observations

Time (EDT) Temp. Dew Point Humidity Pressure Visibility Wind Dir Wind Speed Gust Speed Precip Events Conditions
12:09 AM 69.8 °F 66.2 °F 88% 30.05 in 6.0 mi Calm Calm - N/A   Mostly Cloudy
12:25 AM 68.0 °F 66.2 °F 94% 30.05 in 6.0 mi NE 3.5 mph - N/A   Mostly Cloudy
12:45 AM 68.0 °F 66.2 °F 94% 30.04 in 5.0 mi NE 3.5 mph - N/A   Mostly Cloudy
12:54 AM 69.1 °F 66.9 °F 93% 30.03 in 5.0 mi NE 4.6 mph - N/A   Mostly Cloudy
1:54 AM 69.1 °F 66.9 °F 93% 30.03 in 6.0 mi NNE 4.6 mph - N/A   Overcast
2:54 AM 70.0 °F 68.0 °F 93% 30.05 in 6.0 mi North 3.5 mph - N/A   Overcast
3:54 AM 70.0 °F 68.0 °F 93% 30.04 in 5.0 mi North 3.5 mph - N/A   Overcast
4:09 AM 69.8 °F 68.0 °F 94% 30.06 in 5.0 mi NNE 5.8 mph - N/A   Overcast
4:54 AM 70.0 °F 68.0 °F 93% 30.05 in 4.0 mi NNE 3.5 mph - N/A   Overcast
5:39 AM 69.8 °F 68.0 °F 94% 30.07 in 3.0 mi NNW 3.5 mph - N/A   Overcast
5:54 AM 70.0 °F 68.0 °F 93% 30.06 in 3.0 mi NNE 3.5 mph - N/A   Overcast
6:05 AM 69.8 °F 68.0 °F 94% 30.07 in 2.5 mi NNE 4.6 mph - N/A   Overcast
6:46 AM 69.8 °F 68.0 °F 94% 30.08 in 1.2 mi NNE 4.6 mph - N/A   Overcast
6:54 AM 70.0 °F 69.1 °F 97% 30.06 in 1.0 mi NNE 5.8 mph - N/A   Overcast
7:01 AM 69.8 °F 69.8 °F 100% 30.08 in 0.8 mi NNE 4.6 mph - N/A   Overcast
7:37 AM 69.8 °F 69.8 °F 100% 30.10 in 1.0 mi NE 5.8 mph - N/A   Overcast
7:54 AM 70.0 °F 69.1 °F 97% 30.09 in 1.8 mi NE 6.9 mph - N/A   Overcast
8:05 AM 69.8 °F 69.8 °F 100% 30.11 in 2.0 mi NE 4.6 mph - 0.00 in Rain Light Rain
8:32 AM 71.6 °F 69.8 °F 94% 30.11 in 3.0 mi NNE 6.9 mph - 0.01 in Rain Light Rain
8:49 AM 71.6 °F 69.8 °F 94% 30.12 in 5.0 mi NE 6.9 mph - 0.01 in Rain Light Rain
8:54 AM 71.1 °F 69.1 °F 93% 30.10 in 5.0 mi NE 6.9 mph - 0.01 in Rain Light Rain
9:29 AM 71.6 °F 69.8 °F 94% 30.13 in 5.0 mi NE 4.6 mph - 0.00 in   Overcast
9:54 AM 72.0 °F 70.0 °F 93% 30.12 in 5.0 mi NNE 5.8 mph - 0.00 in Rain Light Rain
10:54 AM 73.0 °F 70.0 °F 90% 30.12 in 8.0 mi NE 5.8 mph - 0.00 in   Overcast
11:23 AM 73.4 °F 69.8 °F 88% 30.14 in 8.0 mi NNE 5.8 mph - N/A   Overcast
11:54 AM 73.9 °F 70.0 °F 87% 30.13 in 10.0 mi North 4.6 mph - N/A   Overcast
12:52 PM 73.4 °F 71.6 °F 94% 30.14 in 4.0 mi NNE 5.8 mph - 0.00 in Rain Light Rain
12:54 PM 73.9 °F 71.1 °F 91% 30.13 in 6.0 mi NNE 5.8 mph - 0.00 in Rain Light Rain
1:19 PM 75.2 °F 71.6 °F 89% 30.15 in 10.0 mi NNE 5.8 mph - 0.00 in Rain Light Rain
1:36 PM 73.4 °F 69.8 °F 88% 30.15 in 10.0 mi NE 6.9 mph - 0.00 in Rain Light Rain
1:54 PM 73.9 °F 71.1 °F 91% 30.13 in 8.0 mi NNE 5.8 mph - 0.01 in Rain Light Rain
2:27 PM 75.2 °F 71.6 °F 89% 30.14 in 10.0 mi NE 6.9 mph - 0.02 in Rain Light Rain
2:54 PM 75.9 °F 72.0 °F 87% 30.13 in 10.0 mi NNE 5.8 mph - 0.02 in   Overcast
3:04 PM 75.2 °F 71.6 °F 89% 30.14 in 10.0 mi NNE 5.8 mph - N/A   Overcast
3:47 PM 75.2 °F 71.6 °F 89% 30.13 in 10.0 mi NNE 5.8 mph - 0.00 in Rain Light Rain
3:54 PM 75.0 °F 72.0 °F 90% 30.12 in 10.0 mi North 6.9 mph - 0.00 in Rain Light Rain
4:17 PM 75.2 °F 71.6 °F 89% 30.12 in 7.0 mi NE 5.8 mph - 0.01 in Rain Light Rain
4:54 PM 75.0 °F 73.0 °F 94% 30.12 in 2.5 mi NE 5.8 mph - 0.04 in Rain Light Rain
5:01 PM 75.2 °F 73.4 °F 94% 30.14 in 6.0 mi ENE 5.8 mph - 0.00 in Rain Light Rain
5:26 PM 77.0 °F 73.4 °F 89% 30.13 in 10.0 mi NE 9.2 mph - 0.00 in   Mostly Cloudy
5:31 PM 77.0 °F 73.4 °F 89% 30.12 in 10.0 mi ENE 6.9 mph - 0.00 in   Mostly Cloudy
5:47 PM 77.0 °F 73.4 °F 89% 30.12 in 10.0 mi East 6.9 mph - 0.00 in   Mostly Cloudy
5:54 PM 77.0 °F 73.0 °F 88% 30.10 in 10.0 mi ENE 6.9 mph - 0.00 in   Mostly Cloudy
6:34 PM 77.0 °F 73.4 °F 89% 30.13 in 10.0 mi East 8.1 mph - N/A   Overcast
6:54 PM 77.0 °F 73.9 °F 90% 30.11 in 10.0 mi ENE 5.8 mph - N/A   Overcast
7:16 PM 77.0 °F 73.4 °F 89% 30.13 in 10.0 mi East 6.9 mph - N/A   Overcast
7:52 PM 75.2 °F 73.4 °F 94% 30.14 in 10.0 mi ENE 3.5 mph - N/A   Scattered Clouds
7:54 PM 75.9 °F 73.0 °F 91% 30.12 in 10.0 mi ENE 5.8 mph - N/A   Scattered Clouds
8:35 PM 75.2 °F 71.6 °F 89% 30.15 in 10.0 mi ENE 4.6 mph - N/A   Mostly Cloudy
8:54 PM 75.0 °F 73.0 °F 94% 30.14 in 10.0 mi ENE 3.5 mph - N/A   Overcast
9:54 PM 75.0 °F 72.0 °F 90% 30.15 in 10.0 mi ENE 5.8 mph - 0.01 in   Overcast
10:54 PM 75.0 °F 71.1 °F 87% 30.16 in 10.0 mi East 8.1 mph - N/A   Overcast
11:31 PM 73.4 °F 71.6 °F 94% 30.18 in 8.0 mi East 5.8 mph - 0.00 in Rain Light Rain
11:40 PM 73.4 °F 71.6 °F 94% 30.18 in 10.0 mi East 4.6 mph - 0.00 in Rain Light Rain
11:54 PM 73.9 °F 72.0 °F 93% 30.17 in 10.0 mi East 5.8 mph - 0.00 in   Overcast